Time,TemperatureF,DewpointF,PressureIn,WindDirection,WindDirectionDegrees,WindSpeedMPH,WindSpeedGustMPH,Humidity,HourlyPrecipIn,Conditions,Clouds,dailyrainin,SoftwareType,DateUTC
2014-09-16 00:00:00,57.1,56.3,30.10,WNW,282,0.0,1.0,97,0.00,,,0.00,vanprod-2.5,2014-09-16 04:00:00,
2014-09-16 00:05:00,57.1,56.3,30.10,East,91,0.0,2.0,97,0.01,,,0.01,vanprod-2.5,2014-09-16 04:05:00,
2014-09-16 00:10:00,57.1,56.3,30.10,North,8,0.0,0.0,97,0.01,,,0.01,vanprod-2.5,2014-09-16 04:10:00,
2014-09-16 00:15:00,57.1,56.3,30.10,West,273,0.0,1.0,97,0.01,,,0.01,vanprod-2.5,2014-09-16 04:15:00,
2014-09-16 00:20:00,57.0,56.2,30.10,NNW,337,0.0,1.0,97,0.02,,,0.02,vanprod-2.5,2014-09-16 04:20:00,
2014-09-16 00:25:00,57.0,56.2,30.10,NNW,330,0.0,0.0,97,0.02,,,0.02,vanprod-2.5,2014-09-16 04:25:00,
2014-09-16 00:26:00,57.0,56.2,30.10,NW,316,0.0,1.0,97,0.02,,,0.02,vanprod-2.5,2014-09-16 04:26:00,
2014-09-16 00:31:00,57.0,56.2,30.10,NE,36,0.0,1.0,97,0.03,,,0.03,vanprod-2.5,2014-09-16 04:31:00,
2014-09-16 00:36:00,57.0,56.2,30.10,West,262,0.0,0.0,97,0.03,,,0.03,vanprod-2.5,2014-09-16 04:36:00,
2014-09-16 00:41:00,57.0,56.2,30.10,West,264,0.0,0.0,97,0.04,,,0.04,vanprod-2.5,2014-09-16 04:41:00,
2014-09-16 00:46:00,57.0,56.2,30.11,WSW,252,0.0,0.0,97,0.05,,,0.05,vanprod-2.5,2014-09-16 04:46:00,
2014-09-16 00:51:00,57.0,56.2,30.11,WSW,253,0.0,0.0,97,0.05,,,0.05,vanprod-2.5,2014-09-16 04:51:00,
2014-09-16 00:56:00,57.0,56.2,30.10,WSW,256,0.0,0.0,97,0.06,,,0.06,vanprod-2.5,2014-09-16 04:56:00,
2014-09-16 01:01:00,57.0,56.2,30.10,WSW,256,0.0,0.0,97,0.06,,,0.06,vanprod-2.5,2014-09-16 05:01:00,
2014-09-16 01:06:00,57.0,56.2,30.10,WSW,256,0.0,0.0,97,0.05,,,0.06,vanprod-2.5,2014-09-16 05:06:00,
2014-09-16 01:11:00,57.0,56.2,30.09,NW,312,0.0,0.0,97,0.05,,,0.06,vanprod-2.5,2014-09-16 05:11:00,
2014-09-16 01:16:00,56.9,56.1,30.09,North,1,0.0,0.0,97,0.06,,,0.07,vanprod-2.5,2014-09-16 05:16:00,
2014-09-16 01:21:00,56.9,56.1,30.09,NNW,341,0.0,1.0,97,0.05,,,0.07,vanprod-2.5,2014-09-16 05:21:00,
2014-09-16 01:26:00,56.9,56.1,30.09,NNW,345,0.0,0.0,97,0.05,,,0.07,vanprod-2.5,2014-09-16 05:26:00,
2014-09-16 01:31:00,56.9,56.1,30.09,NNE,18,0.0,1.0,97,0.04,,,0.07,vanprod-2.5,2014-09-16 05:31:00,
2014-09-16 01:36:00,57.0,56.2,30.09,NNW,336,0.0,0.0,97,0.04,,,0.07,vanprod-2.5,2014-09-16 05:36:00,
2014-09-16 01:41:00,57.0,56.2,30.09,North,354,0.0,0.0,97,0.04,,,0.08,vanprod-2.5,2014-09-16 05:41:00,
2014-09-16 01:46:00,56.9,56.1,30.09,North,7,0.0,1.0,97,0.04,,,0.09,vanprod-2.5,2014-09-16 05:46:00,
2014-09-16 01:51:00,56.9,56.1,30.10,NNW,335,0.0,0.0,97,0.04,,,0.09,vanprod-2.5,2014-09-16 05:51:00,
2014-09-16 01:56:00,56.9,56.1,30.10,North,6,0.0,1.0,97,0.03,,,0.09,vanprod-2.5,2014-09-16 05:56:00,
2014-09-16 02:01:00,57.0,56.2,30.10,NNE,13,1.0,1.0,97,0.04,,,0.10,vanprod-2.5,2014-09-16 06:01:00,
2014-09-16 02:06:00,56.9,56.1,30.10,North,355,1.0,1.0,97,0.04,,,0.10,vanprod-2.5,2014-09-16 06:06:00,
2014-09-16 02:11:00,56.8,56.0,30.10,North,9,0.0,0.0,97,0.04,,,0.10,vanprod-2.5,2014-09-16 06:11:00,
2014-09-16 02:16:00,56.7,55.9,30.09,NW,310,0.0,0.0,97,0.03,,,0.10,vanprod-2.5,2014-09-16 06:16:00,
2014-09-16 02:21:00,56.6,55.8,30.09,NNW,336,1.0,1.0,97,0.03,,,0.10,vanprod-2.5,2014-09-16 06:21:00,
2014-09-16 02:25:00,56.6,55.8,30.09,ENE,57,1.0,1.0,97,0.03,,,0.10,vanprod-2.5,2014-09-16 06:25:00,
2014-09-16 02:30:00,56.6,55.8,30.09,NNE,32,0.0,0.0,97,0.03,,,0.10,vanprod-2.5,2014-09-16 06:30:00,
2014-09-16 02:35:00,56.5,55.7,30.09,NNE,20,0.0,1.0,97,0.03,,,0.10,vanprod-2.5,2014-09-16 06:35:00,
2014-09-16 02:40:00,56.5,55.7,30.09,North,356,0.0,1.0,97,0.02,,,0.10,vanprod-2.5,2014-09-16 06:40:00,
2014-09-16 02:45:00,56.5,55.7,30.09,East,81,0.0,0.0,97,0.01,,,0.10,vanprod-2.5,2014-09-16 06:45:00,
2014-09-16 02:50:00,56.5,55.7,30.09,East,81,0.0,0.0,97,0.01,,,0.10,vanprod-2.5,2014-09-16 06:50:00,
2014-09-16 02:55:00,56.5,55.7,30.09,East,81,0.0,0.0,97,0.01,,,0.10,vanprod-2.5,2014-09-16 06:55:00,
2014-09-16 03:00:00,56.5,55.7,30.09,NW,323,0.0,0.0,97,0.00,,,0.10,vanprod-2.5,2014-09-16 07:00:00,
2014-09-16 03:05:00,56.5,55.9,30.09,NW,323,0.0,0.0,98,0.01,,,0.11,vanprod-2.5,2014-09-16 07:05:00,
2014-09-16 03:08:00,56.5,55.9,30.09,NW,323,0.0,0.0,98,0.01,,,0.11,vanprod-2.5,2014-09-16 07:08:00,
2014-09-16 03:13:00,56.5,55.9,30.09,NW,323,0.0,0.0,98,0.01,,,0.11,vanprod-2.5,2014-09-16 07:13:00,
2014-09-16 03:18:00,56.5,55.9,30.09,NW,324,0.0,0.0,98,0.01,,,0.11,vanprod-2.5,2014-09-16 07:18:00,
2014-09-16 03:23:00,56.5,55.9,30.09,North,353,0.0,0.0,98,0.01,,,0.11,vanprod-2.5,2014-09-16 07:23:00,
2014-09-16 03:28:00,56.5,55.9,30.09,North,353,0.0,0.0,98,0.01,,,0.11,vanprod-2.5,2014-09-16 07:28:00,
2014-09-16 03:33:00,56.5,55.9,30.08,North,353,0.0,0.0,98,0.01,,,0.11,vanprod-2.5,2014-09-16 07:33:00,
2014-09-16 03:38:00,56.5,55.9,30.08,North,353,0.0,0.0,98,0.01,,,0.11,vanprod-2.5,2014-09-16 07:38:00,
2014-09-16 03:43:00,56.4,55.8,30.08,North,353,0.0,0.0,98,0.01,,,0.11,vanprod-2.5,2014-09-16 07:43:00,
2014-09-16 03:48:00,56.5,55.9,30.09,North,353,0.0,0.0,98,0.01,,,0.11,vanprod-2.5,2014-09-16 07:48:00,
2014-09-16 03:53:00,56.5,55.9,30.08,North,354,0.0,0.0,98,0.01,,,0.11,vanprod-2.5,2014-09-16 07:53:00,
2014-09-16 03:58:00,56.5,55.9,30.09,ENE,69,0.0,0.0,98,0.01,,,0.11,vanprod-2.5,2014-09-16 07:58:00,
2014-09-16 04:03:00,56.4,55.8,30.09,ENE,68,0.0,0.0,98,0.01,,,0.11,vanprod-2.5,2014-09-16 08:03:00,
2014-09-16 04:08:00,56.4,55.8,30.08,ENE,68,0.0,0.0,98,0.00,,,0.11,vanprod-2.5,2014-09-16 08:08:00,
2014-09-16 04:13:00,56.4,55.8,30.08,ENE,68,0.0,0.0,98,0.00,,,0.11,vanprod-2.5,2014-09-16 08:13:00,
2014-09-16 04:17:00,56.5,55.9,30.08,ENE,68,0.0,0.0,98,0.00,,,0.11,vanprod-2.5,2014-09-16 08:17:00,
2014-09-16 04:22:00,56.5,55.9,30.09,ENE,68,0.0,0.0,98,0.00,,,0.11,vanprod-2.5,2014-09-16 08:22:00,
2014-09-16 04:27:00,56.5,55.9,30.08,ENE,59,0.0,1.0,98,0.00,,,0.11,vanprod-2.5,2014-09-16 08:27:00,
2014-09-16 04:31:00,56.5,55.9,30.08,NNE,27,0.0,0.0,98,0.00,,,0.11,vanprod-2.5,2014-09-16 08:31:00,
2014-09-16 04:36:00,56.5,55.9,30.08,NE,42,0.0,0.0,98,0.00,,,0.11,vanprod-2.5,2014-09-16 08:36:00,
2014-09-16 04:41:00,56.5,55.9,30.09,NW,304,0.0,0.0,98,0.00,,,0.11,vanprod-2.5,2014-09-16 08:41:00,
2014-09-16 04:46:00,56.4,55.8,30.08,NW,307,0.0,0.0,98,0.00,,,0.11,vanprod-2.5,2014-09-16 08:46:00,
2014-09-16 04:51:00,56.5,55.9,30.08,ENE,78,0.0,0.0,98,0.00,,,0.11,vanprod-2.5,2014-09-16 08:51:00,
2014-09-16 04:56:00,56.4,55.8,30.09,NNE,30,0.0,0.0,98,0.00,,,0.11,vanprod-2.5,2014-09-16 08:56:00,
2014-09-16 05:01:00,56.4,55.8,30.08,ENE,61,0.0,0.0,98,0.00,,,0.11,vanprod-2.5,2014-09-16 09:01:00,
2014-09-16 05:06:00,56.4,55.8,30.08,NE,47,0.0,1.0,98,0.00,,,0.11,vanprod-2.5,2014-09-16 09:06:00,
2014-09-16 05:11:00,56.3,55.7,30.09,West,276,0.0,1.0,98,0.00,,,0.11,vanprod-2.5,2014-09-16 09:11:00,
2014-09-16 05:16:00,56.3,55.7,30.09,East,85,0.0,0.0,98,0.00,,,0.11,vanprod-2.5,2014-09-16 09:16:00,
2014-09-16 05:21:00,56.2,55.6,30.09,ENE,77,0.0,0.0,98,0.00,,,0.11,vanprod-2.5,2014-09-16 09:21:00,
2014-09-16 05:26:00,56.2,55.6,30.09,NNE,30,0.0,0.0,98,0.00,,,0.11,vanprod-2.5,2014-09-16 09:26:00,
2014-09-16 05:31:00,56.1,55.5,30.09,NNE,16,0.0,0.0,98,0.00,,,0.11,vanprod-2.5,2014-09-16 09:31:00,
2014-09-16 05:36:00,56.0,55.4,30.09,NNE,33,0.0,0.0,98,0.00,,,0.11,vanprod-2.5,2014-09-16 09:36:00,
2014-09-16 05:38:00,56.0,55.4,30.09,NW,323,0.0,0.0,98,0.00,,,0.11,vanprod-2.5,2014-09-16 09:38:00,
2014-09-16 05:43:00,55.9,55.3,30.09,NW,310,0.0,0.0,98,0.00,,,0.11,vanprod-2.5,2014-09-16 09:43:00,
2014-09-16 05:48:00,55.9,55.3,30.10,NW,310,0.0,0.0,98,0.00,,,0.11,vanprod-2.5,2014-09-16 09:48:00,
2014-09-16 05:53:00,55.9,55.3,30.10,NW,311,0.0,0.0,98,0.00,,,0.11,vanprod-2.5,2014-09-16 09:53:00,
2014-09-16 05:58:00,55.8,55.2,30.10,NW,311,0.0,0.0,98,0.00,,,0.11,vanprod-2.5,2014-09-16 09:58:00,
2014-09-16 06:03:00,55.9,55.3,30.10,NW,312,0.0,0.0,98,0.00,,,0.11,vanprod-2.5,2014-09-16 10:03:00,
2014-09-16 06:08:00,55.9,55.3,30.10,NW,318,0.0,1.0,98,0.00,,,0.11,vanprod-2.5,2014-09-16 10:08:00,
2014-09-16 06:13:00,55.8,55.2,30.11,NE,55,0.0,0.0,98,0.00,,,0.11,vanprod-2.5,2014-09-16 10:13:00,
2014-09-16 06:17:00,55.7,55.1,30.11,ENE,61,1.0,1.0,98,0.00,,,0.11,vanprod-2.5,2014-09-16 10:17:00,
2014-09-16 06:22:00,55.5,54.9,30.11,NNW,347,0.0,0.0,98,0.00,,,0.11,vanprod-2.5,2014-09-16 10:22:00,
2014-09-16 06:27:00,55.5,54.9,30.11,East,82,0.0,0.0,98,0.00,,,0.11,vanprod-2.5,2014-09-16 10:27:00,
2014-09-16 06:32:00,55.4,54.8,30.11,NW,311,0.0,0.0,98,0.00,,,0.11,vanprod-2.5,2014-09-16 10:32:00,
2014-09-16 06:37:00,55.3,54.5,30.11,NNW,328,0.0,0.0,97,0.00,,,0.11,vanprod-2.5,2014-09-16 10:37:00,
2014-09-16 06:42:00,55.0,54.2,30.11,ENE,76,0.0,2.0,97,0.00,,,0.11,vanprod-2.5,2014-09-16 10:42:00,
2014-09-16 06:47:00,54.7,53.9,30.11,ENE,74,0.0,1.0,97,0.00,,,0.11,vanprod-2.5,2014-09-16 10:47:00,
2014-09-16 06:52:00,54.6,53.8,30.12,NNW,346,0.0,0.0,97,0.00,,,0.11,vanprod-2.5,2014-09-16 10:52:00,
2014-09-16 06:57:00,54.5,53.7,30.12,NNW,347,0.0,0.0,97,0.00,,,0.11,vanprod-2.5,2014-09-16 10:57:00,
2014-09-16 07:02:00,54.4,53.6,30.12,East,86,0.0,0.0,97,0.00,,,0.11,vanprod-2.5,2014-09-16 11:02:00,
2014-09-16 07:07:00,54.3,53.5,30.12,ENE,73,0.0,0.0,97,0.00,,,0.11,vanprod-2.5,2014-09-16 11:07:00,
2014-09-16 07:12:00,54.2,53.4,30.12,NNW,328,0.0,0.0,97,0.00,,,0.11,vanprod-2.5,2014-09-16 11:12:00,
2014-09-16 07:17:00,54.1,53.3,30.13,North,359,2.0,4.0,97,0.00,,,0.11,vanprod-2.5,2014-09-16 11:17:00,
2014-09-16 07:22:00,54.0,53.2,30.13,NW,308,0.0,1.0,97,0.00,,,0.11,vanprod-2.5,2014-09-16 11:22:00,
2014-09-16 07:27:00,53.9,53.1,30.13,ENE,73,0.0,1.0,97,0.00,,,0.11,vanprod-2.5,2014-09-16 11:27:00,
2014-09-16 07:32:00,53.7,52.9,30.13,NNW,341,0.0,1.0,97,0.00,,,0.11,vanprod-2.5,2014-09-16 11:32:00,
2014-09-16 07:37:00,53.6,52.8,30.14,East,80,0.0,0.0,97,0.00,,,0.11,vanprod-2.5,2014-09-16 11:37:00,
2014-09-16 07:42:00,53.4,52.6,30.14,ENE,65,0.0,0.0,97,0.00,,,0.11,vanprod-2.5,2014-09-16 11:42:00,
2014-09-16 07:47:00,53.3,52.5,30.14,NW,323,0.0,1.0,97,0.00,,,0.11,vanprod-2.5,2014-09-16 11:47:00,
2014-09-16 07:52:00,53.3,52.5,30.14,NNE,25,0.0,3.0,97,0.00,,,0.11,vanprod-2.5,2014-09-16 11:52:00,
2014-09-16 07:57:00,53.3,52.5,30.14,NNW,342,0.0,1.0,97,0.00,,,0.11,vanprod-2.5,2014-09-16 11:57:00,
2014-09-16 08:02:00,53.3,52.5,30.14,NNW,343,0.0,0.0,97,0.00,,,0.11,vanprod-2.5,2014-09-16 12:02:00,
2014-09-16 08:07:00,53.3,52.5,30.15,SW,216,0.0,0.0,97,0.00,,,0.11,vanprod-2.5,2014-09-16 12:07:00,
2014-09-16 08:11:00,53.3,52.5,30.15,ENE,68,0.0,1.0,97,0.00,,,0.11,vanprod-2.5,2014-09-16 12:11:00,
2014-09-16 08:16:00,53.2,52.4,30.15,North,353,1.0,2.0,97,0.00,,,0.11,vanprod-2.5,2014-09-16 12:16:00,
2014-09-16 08:21:00,53.2,52.4,30.15,NE,34,0.0,1.0,97,0.00,,,0.11,vanprod-2.5,2014-09-16 12:21:00,
2014-09-16 08:26:00,53.4,52.6,30.15,NNW,338,0.0,1.0,97,0.00,,,0.11,vanprod-2.5,2014-09-16 12:26:00,
2014-09-16 08:31:00,53.5,52.7,30.15,ENE,64,0.0,1.0,97,0.00,,,0.11,vanprod-2.5,2014-09-16 12:31:00,
2014-09-16 08:36:00,53.4,52.3,30.15,ENE,58,1.0,1.0,96,0.00,,,0.11,vanprod-2.5,2014-09-16 12:36:00,
2014-09-16 08:41:00,53.4,52.3,30.15,NNE,21,1.0,2.0,96,0.00,,,0.11,vanprod-2.5,2014-09-16 12:41:00,
2014-09-16 08:46:00,53.4,52.3,30.15,NE,39,0.0,2.0,96,0.00,,,0.11,vanprod-2.5,2014-09-16 12:46:00,
2014-09-16 08:51:00,53.6,52.5,30.15,ENE,72,0.0,1.0,96,0.00,,,0.11,vanprod-2.5,2014-09-16 12:51:00,
2014-09-16 08:56:00,53.6,52.5,30.16,NE,49,0.0,1.0,96,0.00,,,0.11,vanprod-2.5,2014-09-16 12:56:00,
2014-09-16 09:01:00,53.7,52.6,30.15,ENE,67,1.0,4.0,96,0.00,,,0.11,vanprod-2.5,2014-09-16 13:01:00,
2014-09-16 09:06:00,53.8,52.4,30.16,North,3,0.0,1.0,95,0.00,,,0.11,vanprod-2.5,2014-09-16 13:06:00,
2014-09-16 09:11:00,54.0,52.6,30.16,NNE,33,0.0,1.0,95,0.00,,,0.11,vanprod-2.5,2014-09-16 13:11:00,
2014-09-16 09:16:00,53.9,52.5,30.16,NNE,29,1.0,4.0,95,0.00,,,0.11,vanprod-2.5,2014-09-16 13:16:00,
2014-09-16 09:21:00,54.0,52.3,30.16,NE,56,0.0,1.0,94,0.00,,,0.11,vanprod-2.5,2014-09-16 13:21:00,
2014-09-16 09:26:00,54.0,52.3,30.16,ENE,76,0.0,1.0,94,0.00,,,0.11,vanprod-2.5,2014-09-16 13:26:00,
2014-09-16 09:31:00,54.2,52.5,30.16,NE,42,1.0,4.0,94,0.00,,,0.11,vanprod-2.5,2014-09-16 13:31:00,
2014-09-16 09:36:00,54.4,52.4,30.16,ENE,69,1.0,1.0,93,0.00,,,0.11,vanprod-2.5,2014-09-16 13:36:00,
2014-09-16 09:41:00,54.6,52.3,30.16,North,355,1.0,1.0,92,0.00,,,0.11,vanprod-2.5,2014-09-16 13:41:00,
2014-09-16 09:46:00,54.6,52.3,30.16,East,81,1.0,3.0,92,0.00,,,0.11,vanprod-2.5,2014-09-16 13:46:00,
2014-09-16 09:51:00,54.8,52.5,30.16,NNW,345,2.0,2.0,92,0.00,,,0.11,vanprod-2.5,2014-09-16 13:51:00,
2014-09-16 09:56:00,54.9,52.3,30.16,NNW,334,2.0,2.0,91,0.00,,,0.11,vanprod-2.5,2014-09-16 13:56:00,
2014-09-16 10:01:00,55.1,52.8,30.16,ENE,57,0.0,1.0,92,0.00,,,0.11,vanprod-2.5,2014-09-16 14:01:00,
2014-09-16 10:06:00,55.1,52.8,30.16,North,6,0.0,1.0,92,0.00,,,0.11,vanprod-2.5,2014-09-16 14:06:00,
2014-09-16 10:11:00,55.1,52.5,30.16,ENE,77,1.0,0.0,91,0.00,,,0.11,vanprod-2.5,2014-09-16 14:11:00,
2014-09-16 10:16:00,55.0,52.4,30.16,NNW,345,1.0,2.0,91,0.00,,,0.11,vanprod-2.5,2014-09-16 14:16:00,
2014-09-16 10:21:00,55.0,52.7,30.16,NNE,33,0.0,2.0,92,0.00,,,0.11,vanprod-2.5,2014-09-16 14:21:00,
2014-09-16 10:26:00,54.8,52.2,30.16,ENE,73,1.0,1.0,91,0.00,,,0.11,vanprod-2.5,2014-09-16 14:26:00,
2014-09-16 10:31:00,55.0,52.7,30.17,ENE,64,1.0,3.0,92,0.00,,,0.11,vanprod-2.5,2014-09-16 14:31:00,
2014-09-16 10:36:00,55.0,52.4,30.16,NNE,24,1.0,4.0,91,0.00,,,0.11,vanprod-2.5,2014-09-16 14:36:00,
2014-09-16 10:41:00,55.0,52.1,30.16,NE,36,1.0,0.0,90,0.00,,,0.11,vanprod-2.5,2014-09-16 14:41:00,
2014-09-16 10:46:00,55.2,52.6,30.16,ENE,67,2.0,6.0,91,0.00,,,0.11,vanprod-2.5,2014-09-16 14:46:00,
2014-09-16 10:51:00,55.0,51.8,30.16,ENE,78,3.0,3.0,89,0.00,,,0.11,vanprod-2.5,2014-09-16 14:51:00,
2014-09-16 10:56:00,55.2,52.3,30.16,ENE,58,1.0,1.0,90,0.00,,,0.11,vanprod-2.5,2014-09-16 14:56:00,
2014-09-16 11:01:00,55.3,52.4,30.16,ENE,67,1.0,1.0,90,0.00,,,0.11,vanprod-2.5,2014-09-16 15:01:00,
2014-09-16 11:06:00,55.1,52.5,30.16,East,79,1.0,1.0,91,0.00,,,0.11,vanprod-2.5,2014-09-16 15:06:00,
2014-09-16 11:07:00,55.1,52.5,30.16,East,81,0.0,0.0,91,0.00,,,0.11,vanprod-2.5,2014-09-16 15:07:00,
2014-09-16 11:12:00,55.3,52.7,30.16,NNE,13,1.0,0.0,91,0.00,,,0.11,vanprod-2.5,2014-09-16 15:12:00,
2014-09-16 11:17:00,55.5,52.6,30.16,East,89,1.0,1.0,90,0.00,,,0.11,vanprod-2.5,2014-09-16 15:17:00,
2014-09-16 11:22:00,55.5,52.3,30.15,NE,35,1.0,0.0,89,0.00,,,0.11,vanprod-2.5,2014-09-16 15:22:00,
2014-09-16 11:27:00,56.1,53.2,30.15,NE,37,0.0,0.0,90,0.00,,,0.11,vanprod-2.5,2014-09-16 15:27:00,
2014-09-16 11:32:00,56.7,52.9,30.15,East,83,2.0,2.0,87,0.00,,,0.11,vanprod-2.5,2014-09-16 15:32:00,
2014-09-16 11:37:00,56.5,52.7,30.15,East,83,1.0,0.0,87,0.00,,,0.11,vanprod-2.5,2014-09-16 15:37:00,
2014-09-16 11:42:00,56.8,53.3,30.15,East,88,1.0,3.0,88,0.00,,,0.11,vanprod-2.5,2014-09-16 15:42:00,
2014-09-16 11:47:00,56.9,53.4,30.15,ENE,72,0.0,1.0,88,0.00,,,0.11,vanprod-2.5,2014-09-16 15:47:00,
2014-09-16 11:52:00,56.9,52.8,30.15,NE,47,0.0,0.0,86,0.00,,,0.11,vanprod-2.5,2014-09-16 15:52:00,
2014-09-16 11:57:00,57.0,53.2,30.15,ENE,72,0.0,3.0,87,0.00,,,0.11,vanprod-2.5,2014-09-16 15:57:00,
2014-09-16 12:02:00,57.1,53.3,30.15,NNW,329,0.0,0.0,87,0.00,,,0.11,vanprod-2.5,2014-09-16 16:02:00,
2014-09-16 12:07:00,57.1,53.3,30.15,NNW,329,0.0,0.0,87,0.00,,,0.11,vanprod-2.5,2014-09-16 16:07:00,
2014-09-16 12:20:00,57.1,53.3,30.15,NNW,329,0.0,0.0,87,0.00,,,0.11,vanprod-2.5,2014-09-16 16:20:00,
2014-09-16 12:27:00,57.4,53.6,30.15,NNW,328,0.0,0.0,87,0.00,,,0.11,vanprod-2.5,2014-09-16 16:27:00,
2014-09-16 12:32:00,57.6,53.8,30.15,ENE,68,1.0,2.0,87,0.00,,,0.11,vanprod-2.5,2014-09-16 16:32:00,
2014-09-16 12:37:00,57.7,53.5,30.15,ENE,77,1.0,0.0,86,0.00,,,0.11,vanprod-2.5,2014-09-16 16:37:00,
2014-09-16 12:42:00,57.9,53.7,30.15,East,83,1.0,1.0,86,0.00,,,0.11,vanprod-2.5,2014-09-16 16:42:00,
2014-09-16 12:47:00,57.8,53.0,30.15,ENE,71,2.0,2.0,84,0.00,,,0.11,vanprod-2.5,2014-09-16 16:47:00,
2014-09-16 12:52:00,58.3,54.1,30.15,ENE,68,1.0,1.0,86,0.00,,,0.11,vanprod-2.5,2014-09-16 16:52:00,
2014-09-16 12:57:00,58.3,53.8,30.15,East,86,0.0,0.0,85,0.00,,,0.11,vanprod-2.5,2014-09-16 16:57:00,
2014-09-16 13:02:00,58.3,53.5,30.14,ENE,76,2.0,2.0,84,0.00,,,0.11,vanprod-2.5,2014-09-16 17:02:00,
2014-09-16 13:07:00,58.3,53.8,30.14,ENE,58,0.0,1.0,85,0.00,,,0.11,vanprod-2.5,2014-09-16 17:07:00,
2014-09-16 13:12:00,58.2,53.7,30.14,North,3,0.0,1.0,85,0.00,,,0.11,vanprod-2.5,2014-09-16 17:12:00,
2014-09-16 13:14:00,58.2,53.7,30.14,North,351,1.0,2.0,85,0.00,,,0.11,vanprod-2.5,2014-09-16 17:14:00,
2014-09-16 13:19:00,58.2,53.4,30.14,East,84,0.0,0.0,84,0.00,,,0.11,vanprod-2.5,2014-09-16 17:19:00,
2014-09-16 13:24:00,58.2,53.1,30.14,ENE,78,1.0,3.0,83,0.00,,,0.11,vanprod-2.5,2014-09-16 17:24:00,
2014-09-16 13:29:00,58.3,53.2,30.14,North,350,0.0,0.0,83,0.00,,,0.11,vanprod-2.5,2014-09-16 17:29:00,
2014-09-16 13:34:00,58.8,54.0,30.14,NE,46,0.0,0.0,84,0.00,,,0.11,vanprod-2.5,2014-09-16 17:34:00,
2014-09-16 13:39:00,58.8,53.3,30.14,ENE,74,2.0,2.0,82,0.00,,,0.11,vanprod-2.5,2014-09-16 17:39:00,
2014-09-16 13:44:00,58.6,53.8,30.14,NNW,347,1.0,1.0,84,0.00,,,0.11,vanprod-2.5,2014-09-16 17:44:00,
2014-09-16 13:49:00,58.4,54.2,30.14,East,82,0.0,0.0,86,0.00,,,0.11,vanprod-2.5,2014-09-16 17:49:00,
2014-09-16 13:54:00,58.3,54.1,30.14,ENE,60,1.0,1.0,86,0.00,,,0.11,vanprod-2.5,2014-09-16 17:54:00,
2014-09-16 13:59:00,58.0,53.5,30.14,NNW,345,2.0,2.0,85,0.00,,,0.11,vanprod-2.5,2014-09-16 17:59:00,
2014-09-16 14:04:00,57.9,53.7,30.14,East,84,0.0,0.0,86,0.00,,,0.11,vanprod-2.5,2014-09-16 18:04:00,
2014-09-16 14:09:00,58.0,53.8,30.14,East,79,1.0,1.0,86,0.00,,,0.11,vanprod-2.5,2014-09-16 18:09:00,
2014-09-16 14:14:00,58.1,53.9,30.14,NNW,343,0.0,0.0,86,0.00,,,0.11,vanprod-2.5,2014-09-16 18:14:00,
2014-09-16 14:19:00,58.1,53.6,30.14,NE,51,0.0,0.0,85,0.00,,,0.11,vanprod-2.5,2014-09-16 18:19:00,
2014-09-16 14:24:00,58.2,54.0,30.14,East,79,0.0,0.0,86,0.00,,,0.11,vanprod-2.5,2014-09-16 18:24:00,
2014-09-16 14:29:00,58.5,53.7,30.14,North,350,1.0,2.0,84,0.00,,,0.11,vanprod-2.5,2014-09-16 18:29:00,
2014-09-16 14:34:00,58.6,53.5,30.14,East,79,0.0,0.0,83,0.00,,,0.11,vanprod-2.5,2014-09-16 18:34:00,
2014-09-16 14:39:00,58.9,53.8,30.14,ENE,60,0.0,1.0,83,0.00,,,0.11,vanprod-2.5,2014-09-16 18:39:00,